Regional Weather Roundup
Issued by NWS

Home | Current Version | Previous Version | Graphics & Text | Print | Product List | Glossary Off
Versions: 1 2 3 4 5 6 7 8 9 10 11 12 13 14 15 16 17 18 19 20 21 22 23 24 25 26 27 28 29 30 31 32 33 34 35 36 37 38 39 40 41 42 43 44 45 46 47 48 49 50

000
ASUS43 KLSX 010507
RWRMO

WEATHER SUMMARY FOR MISSOURI
NATIONAL WEATHER SERVICE SPRINGFIELD MO
1200 AM CDT THU SEP 01 2016

NOTE: "FAIR" INDICATES FEW OR NO CLOUDS BELOW 12,000 FEET WITH NO
       SIGNIFICANT WEATHER AND/OR OBSTRUCTIONS TO VISIBILITY.
       CURRENT SKY AND/OR WEATHER CONDITIONS ARE NOT AVAILABLE FOR
       CHILLICOTHE AND FARMINGTON.

MOZ001>031-035>038-043-044-053-054-010600-
...NORTHERN AND WESTERN MISSOURI...

CITY           SKY/WX    TMP DP  RH WIND       PRES   REMARKS
KANSAS CTY INT PTCLDY    67  61  81 NE6       30.14R
KANSAS C DTWN  PTCLDY    69  61  75 CALM      30.13R
LEE`S SUMMIT   CLEAR     69  62  78 NE6       30.13S
ST JOSEPH      CLEAR     64  61  90 N7        30.15R
CHILLICOTHE      N/A     66  61  84 VRB3      30.15S
KIRKSVILLE     CLEAR     62  57  83 N5        30.15R

$$
MOZ066>068-077>081-088>096-101>105-010600-
...SOUTHWEST MISSOURI...

CITY           SKY/WX    TMP DP  RH WIND       PRES   REMARKS
SPRINGFIELD    MOCLDY    71  68  90 NE7       30.10R
JOPLIN         MOCLDY    70  69  97 E3        30.10R
BRANSON          N/A     70  68  94 CALM      30.10R

$$
MOZ032>034-039>042-045>050-055>058-069>072-010600-
...CENTRAL MISSOURI...

CITY           SKY/WX    TMP DP  RH WIND       PRES   REMARKS
COLUMBIA       PTCLDY    67  65  93 NE8       30.10S
JEFFERSON CITY CLEAR     71  65  81 VRB5      30.09R
ROLLA          CLEAR     68  66  93 N3        30.08R
SEDALIA        CLEAR     68  64  87 N5        30.12S
WHITEMAN AFB   PTCLDY    67  67 100 NE3       30.10F
OSAGE BEACH    CLEAR     69  69 100 CALM      30.10R

$$
MOZ051-052-059>065-010600-
...EAST CENTRAL MISSOURI...

CITY           SKY/WX    TMP DP  RH WIND       PRES   REMARKS
ST LOUIS INTL  MOCLDY    74  67  78 NE8       30.07R
SPIRIT OF STL  CLOUDY    73  69  87 N3        30.06R
ST CHARLES     CLEAR     71  67  87 N9        30.06R

$$
MOZ072>076-082>087-097>100-106>115-010600-
...SOUTH CENTRAL AND SOUTHEAST MISSOURI...

CITY           SKY/WX    TMP DP  RH WIND       PRES   REMARKS
CAPE GIRARDEAU MOCLDY    73  69  87 NW3       30.01R
FARMINGTON     CLOUDY    73  67  81 NW7       30.06S
POPLAR BLUFF   PTCLDY    72  69  90 N5        30.01R
WEST PLAINS    PTCLDY    71  69  93 N6        30.09S

$$


USA.gov is the U.S. government's official web portal to all federal, state and local government web resources and services.